QPF
0.00 0.00 0.00 0.00 0.00 0.00 0.00 0.00 0.00 0.00 0.00 0.01 0.01 0.01 0.00 0.00 0.00 0.00 0.00 0.00 0.00 0.00 0.00 0.00 0.00 0.00 0.00 0.00 0.00 0.00 0.00 0.00 0.00 0.00 0.00 0.00 0.00 0.00 0.00 0.00 0.00 0.00 0.00
0.00 0.00 0.00 0.00 0.00 0.00 0.00 0.00 0.00 0.01 0.01 0.01 0.01 0.01 0.00 0.00 0.00 0.00 0.00 0.00 0.01 0.01 0.01 0.01 0.01 0.01 0.00 0.00 0.00 0.00 0.00 0.00 0.00 0.00 0.00 0.00 0.00 0.00 0.00 0.00 0.00 0.00 0.00
0.00 0.00 0.00 0.00 0.00 0.00 0.00 0.00 0.00 0.00 0.01 0.01 0.01 0.01 0.01 0.00 0.00 0.00 0.00 0.00 0.00 0.01 0.01 0.01 0.01 0.01 0.01 0.01 0.01 0.01 0.01 0.01 0.00 0.00 0.00 0.00 0.00 0.00 0.00 0.00 0.00 0.00 0.00
0.00 0.00 0.00 0.00 0.00 0.00 0.00 0.00 0.00 0.00 0.00 0.01 0.01 0.01 0.00 0.00 0.00 0.00 0.00 0.00 0.00 0.00 0.00 0.01 0.02 0.02 0.02 0.02 0.03 0.03 0.03 0.03 0.02 0.02 0.01 0.01 0.00 0.00 0.00 0.00 0.00 0.00 0.00
0.00 0.00 0.00 0.00 0.00 0.00 0.00 0.00 0.00 0.00 0.00 0.00 0.00 0.01 0.00 0.00 0.00 0.00 0.00 0.00 0.00 0.00 0.01 0.01 0.02 0.02 0.02 0.03 0.04 0.05 0.05 0.05 0.05 0.04 0.04 0.03 0.02 0.01 0.01 0.01 0.01 0.01 0.02
0.00 0.00 0.00 0.00 0.00 0.00 0.00 0.00 0.00 0.00 0.00 0.00 0.00 0.00 0.00 0.00 0.00 0.00 0.00 0.00 0.01 0.01 0.02 0.02 0.02 0.03 0.03 0.04 0.06 0.06 0.08 0.10 0.09 0.07 0.06 0.06 0.06 0.07 0.08 0.07 0.05 0.05 0.05
0.00 0.00 0.00 0.00 0.00 0.00 0.00 0.00 0.00 0.00 0.00 0.00 0.00 0.00 0.00 0.00 0.00 0.00 0.00 0.00 0.01 0.01 0.02 0.03 0.03 0.03 0.04 0.05 0.07 0.08 0.09 0.12 0.13 0.13 0.11 0.11 0.12 0.12 0.13 0.13 0.11 0.09 0.08
0.00 0.00 0.00 0.00 0.00 0.00 0.00 0.00 0.00 0.00 0.00 0.00 0.00 0.00 0.00 0.00 0.00 0.00 0.00 0.00 0.00 0.01 0.01 0.02 0.02 0.03 0.04 0.05 0.07 0.08 0.10 0.12 0.15 0.17 0.17 0.16 0.16 0.16 0.18 0.20 0.21 0.21 0.20
0.00 0.00 0.00 0.00 0.00 0.00 0.00 0.00 0.00 0.00 0.00 0.00 0.00 0.00 0.00 0.00 0.00 0.00 0.00 0.00 0.00 0.00 0.01 0.01 0.01 0.02 0.03 0.05 0.07 0.09 0.10 0.12 0.14 0.15 0.17 0.16 0.16 0.17 0.20 0.23 0.26 0.29 0.29
0.00 0.00 0.00 0.00 0.00 0.00 0.00 0.00 0.00 0.00 0.00 0.00 0.00 0.00 0.00 0.00 0.00 0.00 0.00 0.00 0.00 0.00 0.00 0.01 0.01 0.01 0.02 0.03 0.05 0.06 0.07 0.09 0.11 0.12 0.14 0.15 0.15 0.17 0.20 0.23 0.25 0.25 0.26
0.00 0.00 0.00 0.00 0.00 0.00 0.00 0.00 0.00 0.00 0.00 0.00 0.00 0.00 0.00 0.00 0.00 0.00 0.00 0.00 0.00 0.00 0.00 0.00 0.01 0.01 0.01 0.02 0.03 0.04 0.05 0.06 0.07 0.08 0.09 0.12 0.14 0.16 0.18 0.20 0.23 0.24 0.25
0.00 0.00 0.00 0.00 0.00 0.00 0.00 0.00 0.00 0.00 0.00 0.00 0.00 0.00 0.00 0.00 0.00 0.00 0.00 0.00 0.00 0.00 0.00 0.00 0.00 0.01 0.01 0.02 0.02 0.03 0.03 0.04 0.05 0.06 0.07 0.09 0.10 0.12 0.13 0.14 0.15 0.16 0.17
0.00 0.00 0.00 0.00 0.00 0.00 0.00 0.00 0.00 0.00 0.00 0.00 0.00 0.00 0.00 0.00 0.00 0.00 0.00 0.00 0.00 0.00 0.00 0.00 0.00 0.00 0.01 0.01 0.02 0.02 0.03 0.04 0.04 0.06 0.09 0.11 0.15 0.17 0.17 0.16 0.15 0.14 0.13
0.00 0.00 0.00 0.00 0.00 0.00 0.00 0.00 0.00 0.00 0.00 0.00 0.00 0.00 0.00 0.00 0.00 0.00 0.00 0.00 0.00 0.00 0.00 0.01 0.01 0.01 0.02 0.02 0.03 0.03 0.04 0.05 0.06 0.07 0.09 0.10 0.12 0.13 0.13 0.13 0.12 0.10 0.08
0.00 0.00 0.00 0.00 0.00 0.00 0.00 0.00 0.00 0.00 0.00 0.00 0.00 0.00 0.00 0.00 0.00 0.00 0.00 0.00 0.00 0.01 0.01 0.01 0.02 0.02 0.02 0.02 0.03 0.04 0.05 0.06 0.08 0.10 0.10 0.10 0.10 0.09 0.08 0.07 0.06 0.06 0.04
0.00 0.00 0.00 0.00 0.00 0.00 0.00 0.00 0.00 0.00 0.00 0.00 0.00 0.00 0.00 0.00 0.00 0.00 0.00 0.00 0.00 0.00 0.01 0.01 0.02 0.03 0.04 0.05 0.05 0.06 0.08 0.11 0.12 0.11 0.10 0.09 0.09 0.08 0.06 0.05 0.03 0.03 0.02
0.00 0.00 0.00 0.00 0.00 0.00 0.00 0.00 0.00 0.00 0.00 0.00 0.00 0.00 0.00 0.00 0.00 0.00 0.00 0.00 0.00 0.00 0.01 0.02 0.04 0.05 0.07 0.08 0.07 0.07 0.08 0.10 0.11 0.10 0.09 0.08 0.07 0.06 0.04 0.03 0.02 0.01 0.01
0.00 0.00 0.00 0.00 0.00 0.00 0.00 0.00 0.00 0.00 0.00 0.00 0.00 0.00 0.00 0.00 0.00 0.00 0.00 0.01 0.01 0.02 0.03 0.04 0.06 0.06 0.07 0.07 0.07 0.07 0.06 0.05 0.05 0.04 0.04 0.03 0.03 0.02 0.01 0.01 0.01 0.00 0.00
0.00 0.00 0.00 0.00 0.00 0.00 0.00 0.00 0.00 0.00 0.00 0.00 0.00 0.00 0.00 0.00 0.00 0.00 0.01 0.01 0.01 0.02 0.02 0.03 0.04 0.05 0.06 0.06 0.05 0.04 0.05 0.05 0.04 0.03 0.02 0.01 0.01 0.01 0.00 0.00 0.00 0.00 0.00
0.00 0.00 0.00 0.00 0.00 0.00 0.00 0.00 0.00 0.00 0.00 0.00 0.00 0.00 0.00 0.00 0.00 0.00 0.00 0.00 0.00 0.00 0.01 0.01 0.02 0.02 0.03 0.03 0.03 0.02 0.02 0.02 0.02 0.02 0.01 0.01 0.00 0.00 0.00 0.00 0.00 0.00 0.00
0.00 0.00 0.00 0.00 0.00 0.00 0.00 0.00 0.00 0.00 0.00 0.00 0.00 0.00 0.00 0.00 0.00 0.00 0.00 0.00 0.00 0.00 0.00 0.01 0.01 0.01 0.01 0.01 0.01 0.01 0.01 0.01 0.01 0.00 0.00 0.00 0.00 0.00 0.00 0.00 0.00 0.00 0.00
0.00 0.00 0.00 0.00 0.00 0.00 0.00 0.00 0.00 0.00 0.00 0.00 0.00 0.00 0.00 0.00 0.00 0.00 0.00 0.00 0.00 0.00 0.00 0.00 0.00 0.00 0.00 0.00 0.00 0.00 0.00 0.00 0.00 0.00 0.00 0.00 0.00 0.00 0.00 0.00 0.00 0.00 0.00
0.00 0.00 0.00 0.00 0.00 0.00 0.00 0.00 0.00 0.00 0.00 0.00 0.00 0.00 0.00 0.00 0.00 0.00 0.00 0.00 0.00 0.00 0.00 0.00 0.00 0.00 0.00 0.00 0.00 0.00 0.00 0.00 0.00 0.00 0.00 0.00 0.00 0.00 0.00 0.00 0.00 0.00 0.00
0.00 0.00 0.00 0.00 0.00 0.00 0.00 0.00 0.00 0.00 0.00 0.00 0.00 0.00 0.00 0.00 0.00 0.00 0.00 0.00 0.00 0.00 0.00 0.00 0.00 0.00 0.00 0.00 0.00 0.00 0.00 0.00 0.00 0.00 0.00 0.00 0.00 0.00 0.00 0.00 0.00 0.00 0.00
0.00 0.00 0.00 0.00 0.00 0.00 0.00 0.00 0.00 0.00 0.00 0.00 0.00 0.00 0.00 0.00 0.00 0.00 0.00 0.00 0.00 0.00 0.00 0.00 0.00 0.00 0.00 0.00 0.00 0.00 0.00 0.00 0.00 0.00 0.00 0.00 0.00 0.00 0.00 0.00 0.00 0.00 0.00
0.00 0.00 0.00 0.00 0.00 0.00 0.00 0.00 0.00 0.00 0.00 0.00 0.00 0.00 0.00 0.00 0.00 0.00 0.00 0.00 0.00 0.00 0.00 0.00 0.00 0.00 0.00 0.00 0.00 0.00 0.00 0.00 0.00 0.00 0.00 0.00 0.00 0.00 0.00 0.00 0.00 0.00 0.00
MSLP
1011.11 1011.13 1011.21 1011.34 1011.49 1011.66 1011.84 1012.03 1012.25 1012.50 1012.78 1013.09 1013.42 1013.75 1014.06 1014.34 1014.57 1014.76 1014.92 1015.06 1015.21 1015.39 1015.61 1015.89 1016.22 1016.60 1017.01 1017.43 1017.84 1018.23 1018.59 1018.92 1019.22 1019.48 1019.71 1019.91 1020.08 1020.21 1020.31 1020.40 1020.50 1020.61 1020.76
1011.35 1011.35 1011.39 1011.46 1011.54 1011.65 1011.78 1011.93 1012.13 1012.36 1012.63 1012.93 1013.23 1013.53 1013.80 1014.04 1014.23 1014.38 1014.51 1014.63 1014.78 1014.97 1015.21 1015.51 1015.85 1016.24 1016.63 1017.04 1017.43 1017.79 1018.14 1018.47 1018.77 1019.05 1019.31 1019.53 1019.73 1019.89 1020.02 1020.12 1020.22 1020.33 1020.49
1011.70 1011.70 1011.71 1011.72 1011.75 1011.79 1011.86 1011.96 1012.12 1012.31 1012.55 1012.82 1013.09 1013.34 1013.56 1013.74 1013.88 1013.99 1014.08 1014.19 1014.33 1014.52 1014.76 1015.06 1015.40 1015.76 1016.13 1016.49 1016.83 1017.16 1017.47 1017.77 1018.07 1018.36 1018.64 1018.91 1019.16 1019.38 1019.57 1019.73 1019.89 1020.05 1020.24
1012.11 1012.12 1012.11 1012.10 1012.08 1012.06 1012.07 1012.12 1012.22 1012.37 1012.56 1012.77 1012.99 1013.19 1013.35 1013.48 1013.56 1013.63 1013.69 1013.77 1013.89 1014.06 1014.29 1014.56 1014.87 1015.19 1015.51 1015.81 1016.09 1016.36 1016.63 1016.90 1017.18 1017.48 1017.79 1018.11 1018.43 1018.73 1019.01 1019.27 1019.52 1019.77 1020.03
1012.50 1012.55 1012.56 1012.54 1012.49 1012.43 1012.39 1012.39 1012.43 1012.52 1012.65 1012.80 1012.96 1013.10 1013.21 1013.28 1013.31 1013.34 1013.36 1013.41 1013.50 1013.64 1013.83 1014.07 1014.32 1014.58 1014.83 1015.06 1015.28 1015.49 1015.71 1015.95 1016.21 1016.52 1016.87 1017.24 1017.62 1018.02 1018.40 1018.78 1019.14 1019.51 1019.87
1012.82 1012.93 1012.98 1012.98 1012.93 1012.86 1012.79 1012.74 1012.73 1012.77 1012.84 1012.93 1013.03 1013.11 1013.16 1013.19 1013.18 1013.16 1013.15 1013.17 1013.22 1013.32 1013.46 1013.63 1013.82 1014.01 1014.19 1014.36 1014.52 1014.68 1014.85 1015.07 1015.32 1015.64 1016.01 1016.42 1016.87 1017.35 1017.83 1018.32 1018.80 1019.28 1019.77
1013.03 1013.22 1013.34 1013.39 1013.37 1013.31 1013.24 1013.17 1013.12 1013.11 1013.13 1013.16 1013.20 1013.24 1013.25 1013.24 1013.20 1013.16 1013.12 1013.10 1013.11 1013.16 1013.24 1013.35 1013.47 1013.59 1013.71 1013.82 1013.93 1014.05 1014.20 1014.40 1014.65 1014.97 1015.36 1015.80 1016.30 1016.83 1017.38 1017.95 1018.54 1019.12 1019.70
1013.11 1013.39 1013.60 1013.72 1013.77 1013.76 1013.71 1013.64 1013.58 1013.54 1013.52 1013.51 1013.52 1013.52 1013.50 1013.47 1013.42 1013.36 1013.30 1013.25 1013.22 1013.21 1013.23 1013.27 1013.33 1013.39 1013.45 1013.52 1013.61 1013.72 1013.86 1014.06 1014.32 1014.65 1015.04 1015.49 1016.00 1016.55 1017.14 1017.75 1018.38 1019.02 1019.66
1013.07 1013.44 1013.75 1013.97 1014.11 1014.17 1014.18 1014.14 1014.09 1014.05 1014.01 1013.98 1013.97 1013.95 1013.92 1013.89 1013.83 1013.77 1013.69 1013.62 1013.56 1013.50 1013.47 1013.45 1013.44 1013.46 1013.48 1013.54 1013.62 1013.73 1013.89 1014.11 1014.38 1014.71 1015.10 1015.54 1016.03 1016.56 1017.13 1017.73 1018.36 1019.01 1019.66
1012.95 1013.40 1013.80 1014.13 1014.37 1014.53 1014.61 1014.63 1014.63 1014.60 1014.58 1014.55 1014.54 1014.52 1014.50 1014.47 1014.43 1014.37 1014.30 1014.21 1014.12 1014.03 1013.94 1013.87 1013.82 1013.80 1013.81 1013.86 1013.96 1014.10 1014.29 1014.54 1014.83 1015.17 1015.54 1015.95 1016.39 1016.87 1017.37 1017.91 1018.49 1019.09 1019.71
1012.77 1013.29 1013.78 1014.20 1014.55 1014.81 1014.99 1015.09 1015.15 1015.17 1015.18 1015.19 1015.19 1015.20 1015.20 1015.20 1015.18 1015.13 1015.06 1014.97 1014.86 1014.74 1014.62 1014.52 1014.43 1014.39 1014.40 1014.46 1014.59 1014.77 1015.00 1015.29 1015.60 1015.94 1016.30 1016.67 1017.05 1017.44 1017.85 1018.29 1018.76 1019.27 1019.80
1012.58 1013.14 1013.70 1014.21 1014.65 1015.01 1015.29 1015.49 1015.63 1015.72 1015.79 1015.84 1015.89 1015.93 1015.97 1015.99 1016.00 1015.98 1015.92 1015.84 1015.72 1015.58 1015.44 1015.31 1015.22 1015.16 1015.18 1015.26 1015.41 1015.63 1015.91 1016.23 1016.57 1016.91 1017.25 1017.57 1017.88 1018.18 1018.48 1018.80 1019.15 1019.54 1019.96
1012.40 1012.99 1013.58 1014.16 1014.69 1015.14 1015.52 1015.81 1016.04 1016.21 1016.35 1016.46 1016.56 1016.65 1016.73 1016.79 1016.83 1016.84 1016.80 1016.73 1016.62 1016.48 1016.33 1016.20 1016.09 1016.04 1016.06 1016.16 1016.34 1016.60 1016.91 1017.25 1017.61 1017.95 1018.27 1018.55 1018.79 1019.00 1019.19 1019.39 1019.62 1019.87 1020.16
1012.25 1012.84 1013.47 1014.09 1014.68 1015.21 1015.67 1016.05 1016.37 1016.62 1016.83 1017.01 1017.17 1017.31 1017.43 1017.53 1017.60 1017.64 1017.64 1017.59 1017.49 1017.37 1017.23 1017.10 1017.00 1016.96 1016.99 1017.10 1017.30 1017.56 1017.89 1018.24 1018.60 1018.94 1019.23 1019.47 1019.65 1019.79 1019.89 1019.99 1020.09 1020.23 1020.40
1012.15 1012.75 1013.38 1014.03 1014.65 1015.23 1015.76 1016.22 1016.61 1016.94 1017.22 1017.47 1017.68 1017.87 1018.03 1018.17 1018.28 1018.35 1018.38 1018.36 1018.30 1018.20 1018.09 1017.98 1017.90 1017.87 1017.90 1018.02 1018.21 1018.47 1018.79 1019.13 1019.47 1019.78 1020.04 1020.24 1020.38 1020.46 1020.49 1020.51 1020.52 1020.56 1020.63
1012.13 1012.72 1013.36 1014.01 1014.65 1015.27 1015.83 1016.35 1016.80 1017.19 1017.53 1017.83 1018.09 1018.32 1018.52 1018.70 1018.83 1018.94 1019.00 1019.02 1019.00 1018.94 1018.87 1018.79 1018.74 1018.72 1018.76 1018.87 1019.04 1019.27 1019.55 1019.86 1020.15 1020.43 1020.65 1020.81 1020.91 1020.95 1020.94 1020.91 1020.86 1020.83 1020.82
1012.21 1012.80 1013.43 1014.08 1014.72 1015.34 1015.93 1016.47 1016.95 1017.39 1017.77 1018.11 1018.41 1018.67 1018.90 1019.10 1019.27 1019.40 1019.50 1019.57 1019.59 1019.59 1019.57 1019.53 1019.51 1019.52 1019.56 1019.64 1019.78 1019.96 1020.18 1020.42 1020.66 1020.87 1021.05 1021.17 1021.24 1021.25 1021.21 1021.15 1021.07 1020.99 1020.94
1012.41 1013.01 1013.64 1014.26 1014.89 1015.49 1016.07 1016.61 1017.11 1017.57 1017.98 1018.34 1018.66 1018.95 1019.20 1019.41 1019.60 1019.76 1019.90 1020.00 1020.08 1020.13 1020.16 1020.18 1020.20 1020.22 1020.26 1020.33 1020.42 1020.54 1020.68 1020.84 1020.99 1021.14 1021.25 1021.33 1021.36 1021.36 1021.31 1021.24 1021.15 1021.06 1020.98
1012.74 1013.35 1013.96 1014.56 1015.15 1015.73 1016.28 1016.81 1017.30 1017.76 1018.18 1018.55 1018.88 1019.18 1019.43 1019.66 1019.86 1020.04 1020.20 1020.35 1020.47 1020.58 1020.66 1020.73 1020.79 1020.83 1020.87 1020.91 1020.96 1021.01 1021.08 1021.15 1021.21 1021.28 1021.33 1021.35 1021.36 1021.34 1021.29 1021.22 1021.13 1021.04 1020.96
1013.17 1013.79 1014.38 1014.95 1015.50 1016.03 1016.55 1017.05 1017.52 1017.97 1018.38 1018.76 1019.09 1019.39 1019.64 1019.87 1020.08 1020.27 1020.45 1020.62 1020.78 1020.93 1021.06 1021.18 1021.27 1021.33 1021.38 1021.40 1021.40 1021.40 1021.39 1021.37 1021.36 1021.34 1021.33 1021.31 1021.29 1021.25 1021.20 1021.14 1021.07 1020.99 1020.92
1013.64 1014.26 1014.83 1015.36 1015.87 1016.36 1016.83 1017.30 1017.75 1018.19 1018.59 1018.96 1019.29 1019.59 1019.84 1020.06 1020.27 1020.46 1020.64 1020.83 1021.01 1021.19 1021.36 1021.51 1021.63 1021.72 1021.77 1021.78 1021.75 1021.70 1021.63 1021.55 1021.46 1021.39 1021.32 1021.26 1021.21 1021.17 1021.12 1021.07 1021.02 1020.95 1020.89
1014.07 1014.68 1015.23 1015.72 1016.19 1016.64 1017.08 1017.52 1017.96 1018.38 1018.78 1019.15 1019.48 1019.77 1020.02 1020.24 1020.44 1020.62 1020.81 1020.99 1021.19 1021.38 1021.57 1021.74 1021.88 1021.98 1022.03 1022.04 1022.00 1021.92 1021.82 1021.69 1021.57 1021.45 1021.34 1021.26 1021.19 1021.14 1021.09 1021.05 1021.01 1020.97 1020.92
1014.38 1014.97 1015.49 1015.96 1016.40 1016.82 1017.24 1017.66 1018.09 1018.51 1018.91 1019.29 1019.63 1019.93 1020.18 1020.40 1020.59 1020.77 1020.94 1021.12 1021.31 1021.50 1021.69 1021.87 1022.02 1022.13 1022.19 1022.21 1022.17 1022.08 1021.96 1021.83 1021.68 1021.54 1021.42 1021.32 1021.25 1021.19 1021.15 1021.12 1021.09 1021.05 1021.00
1014.49 1015.05 1015.55 1016.00 1016.43 1016.84 1017.26 1017.68 1018.11 1018.54 1018.96 1019.36 1019.72 1020.03 1020.30 1020.52 1020.72 1020.89 1021.06 1021.22 1021.39 1021.57 1021.75 1021.93 1022.07 1022.19 1022.26 1022.28 1022.26 1022.18 1022.08 1021.95 1021.80 1021.67 1021.55 1021.45 1021.37 1021.32 1021.28 1021.25 1021.22 1021.19 1021.14
1014.36 1014.90 1015.39 1015.84 1016.26 1016.68 1017.11 1017.55 1018.00 1018.46 1018.90 1019.33 1019.72 1020.06 1020.35 1020.60 1020.81 1020.98 1021.15 1021.30 1021.46 1021.62 1021.78 1021.94 1022.07 1022.19 1022.26 1022.30 1022.29 1022.24 1022.15 1022.05 1021.93 1021.82 1021.71 1021.62 1021.55 1021.50 1021.46 1021.42 1021.38 1021.34 1021.28
1014.01 1014.54 1015.02 1015.47 1015.91 1016.35 1016.80 1017.27 1017.75 1018.24 1018.73 1019.19 1019.62 1020.00 1020.34 1020.61 1020.84 1021.04 1021.21 1021.36 1021.50 1021.64 1021.79 1021.92 1022.04 1022.15 1022.22 1022.27 1022.28 1022.25 1022.20 1022.13 1022.04 1021.95 1021.87 1021.79 1021.72 1021.67 1021.62 1021.57 1021.52 1021.45 1021.38
Thickness
5676 5681 5685 5688 5690 5690 5691 5692 5693 5694 5693 5691 5689 5687 5685 5685 5684 5684 5683 5681 5680 5678 5675 5673 5670 5667 5664 5661 5658 5654 5649 5646 5643 5636 5632 5632 5633 5632 5631 5629 5627 5625 5622
5667 5672 5676 5678 5679 5680 5682 5684 5686 5687 5688 5688 5687 5685 5684 5683 5682 5681 5679 5677 5674 5672 5670 5668 5665 5662 5659 5656 5653 5649 5643 5639 5636 5629 5621 5618 5619 5622 5624 5621 5619 5617 5614
5656 5660 5664 5667 5668 5669 5671 5675 5677 5679 5680 5681 5681 5680 5679 5678 5676 5676 5675 5673 5670 5667 5664 5662 5660 5657 5654 5650 5648 5644 5639 5633 5629 5627 5620 5614 5614 5612 5613 5613 5611 5608 5606
5648 5651 5654 5656 5657 5660 5662 5665 5668 5670 5672 5673 5672 5670 5669 5668 5670 5670 5670 5669 5667 5664 5660 5658 5655 5651 5648 5645 5642 5639 5634 5628 5622 5618 5618 5615 5613 5606 5600 5600 5600 5598 5595
5638 5640 5643 5645 5648 5650 5652 5655 5658 5660 5662 5663 5663 5662 5662 5662 5663 5663 5662 5662 5661 5660 5657 5653 5650 5646 5643 5639 5636 5632 5628 5624 5618 5613 5609 5605 5601 5599 5593 5587 5586 5585 5583
5629 5631 5633 5636 5638 5640 5642 5645 5647 5650 5652 5653 5654 5654 5653 5653 5653 5652 5652 5653 5653 5652 5651 5648 5644 5641 5637 5633 5629 5625 5621 5617 5612 5607 5603 5598 5594 5591 5586 5581 5573 5571 5569
5619 5621 5623 5626 5628 5630 5632 5634 5637 5639 5641 5642 5643 5644 5644 5644 5644 5643 5643 5643 5643 5643 5642 5640 5637 5634 5630 5626 5622 5617 5612 5608 5603 5599 5594 5591 5588 5585 5581 5575 5566 5558 5552
5610 5613 5614 5616 5618 5620 5622 5624 5626 5627 5629 5631 5632 5633 5634 5634 5635 5635 5634 5634 5633 5633 5632 5630 5628 5625 5621 5617 5612 5607 5602 5597 5592 5587 5582 5578 5575 5571 5569 5566 5557 5544 5537
5602 5604 5606 5607 5608 5609 5611 5613 5615 5616 5618 5619 5621 5622 5623 5623 5623 5624 5624 5624 5623 5622 5621 5619 5616 5612 5609 5604 5599 5593 5587 5581 5576 5572 5567 5561 5558 5554 5551 5550 5548 5543 5534
5595 5596 5596 5597 5598 5599 5600 5602 5604 5605 5606 5607 5609 5610 5610 5611 5612 5612 5612 5611 5611 5609 5608 5605 5602 5598 5593 5588 5582 5576 5570 5563 5557 5552 5546 5541 5537 5534 5532 5531 5529 5529 5528
5586 5586 5587 5588 5588 5589 5590 5591 5592 5593 5593 5595 5596 5597 5597 5598 5599 5598 5598 5597 5596 5595 5593 5590 5586 5581 5575 5569 5563 5556 5550 5543 5536 5530 5525 5520 5516 5514 5513 5512 5510 5509 5509
5578 5578 5578 5579 5579 5578 5579 5579 5580 5580 5581 5583 5584 5584 5584 5584 5584 5584 5583 5583 5581 5579 5576 5573 5568 5562 5556 5550 5543 5536 5529 5522 5515 5509 5504 5499 5497 5495 5495 5494 5493 5491 5491
5570 5570 5569 5569 5568 5568 5569 5569 5569 5569 5570 5571 5571 5570 5570 5570 5570 5569 5569 5568 5566 5563 5560 5555 5550 5544 5537 5531 5524 5517 5510 5503 5497 5491 5487 5483 5481 5479 5478 5477 5475 5474 5475
5563 5563 5561 5560 5559 5559 5558 5558 5557 5558 5559 5559 5558 5557 5557 5557 5556 5555 5554 5553 5550 5547 5542 5538 5533 5526 5520 5514 5507 5500 5493 5487 5481 5476 5472 5469 5466 5464 5464 5463 5461 5461 5460
5558 5557 5554 5552 5550 5549 5548 5548 5547 5548 5548 5547 5546 5545 5544 5544 5543 5542 5540 5538 5535 5532 5528 5523 5517 5512 5505 5499 5492 5485 5479 5473 5467 5462 5458 5456 5454 5453 5452 5451 5449 5448 5446
5554 5551 5548 5546 5543 5541 5539 5539 5538 5538 5538 5536 5535 5534 5533 5532 5530 5529 5527 5524 5521 5518 5514 5509 5504 5499 5493 5486 5480 5473 5467 5462 5457 5451 5447 5445 5444 5444 5443 5441 5440 5438 5436
5549 5545 5541 5538 5535 5533 5532 5530 5529 5529 5528 5526 5525 5524 5522 5520 5519 5517 5514 5511 5508 5505 5501 5496 5492 5486 5481 5475 5470 5463 5457 5452 5447 5443 5440 5438 5436 5434 5433 5432 5430 5429 5427
5543 5538 5534 5530 5528 5526 5524 5523 5521 5520 5518 5516 5515 5513 5511 5510 5508 5505 5502 5499 5496 5492 5488 5484 5479 5475 5470 5465 5460 5454 5449 5444 5440 5436 5433 5431 5429 5428 5426 5424 5421 5419 5417
5535 5530 5527 5523 5520 5518 5517 5515 5513 5511 5509 5507 5505 5504 5502 5500 5497 5495 5492 5488 5485 5481 5477 5473 5468 5464 5459 5456 5452 5447 5442 5438 5434 5431 5428 5425 5422 5421 5419 5415 5412 5410 5407
5524 5521 5519 5516 5513 5511 5510 5508 5505 5503 5501 5499 5497 5495 5493 5491 5488 5485 5482 5479 5476 5472 5468 5463 5459 5455 5451 5448 5445 5441 5436 5432 5428 5424 5421 5419 5415 5413 5411 5407 5403 5399 5396
5516 5513 5511 5508 5506 5504 5503 5500 5498 5495 5493 5491 5489 5487 5484 5482 5479 5476 5473 5470 5467 5464 5459 5455 5451 5447 5444 5441 5437 5434 5429 5425 5421 5418 5414 5411 5409 5406 5403 5399 5394 5391 5388
5509 5507 5504 5501 5499 5498 5496 5492 5489 5488 5486 5484 5481 5478 5476 5474 5471 5469 5466 5463 5460 5456 5451 5447 5443 5439 5436 5433 5430 5426 5423 5419 5414 5410 5407 5404 5401 5398 5395 5391 5387 5382 5377
5503 5502 5498 5495 5492 5491 5489 5485 5483 5481 5479 5476 5473 5471 5469 5467 5465 5462 5460 5457 5454 5449 5444 5440 5435 5432 5429 5425 5423 5420 5416 5412 5408 5404 5401 5398 5395 5390 5385 5381 5377 5371 5364
5499 5497 5494 5490 5487 5485 5484 5481 5478 5476 5473 5470 5467 5465 5463 5461 5459 5456 5454 5450 5446 5442 5438 5434 5429 5425 5422 5418 5414 5411 5408 5405 5401 5396 5393 5391 5387 5382 5377 5372 5366 5360 5353
5496 5493 5490 5487 5484 5481 5479 5477 5474 5472 5468 5465 5462 5460 5458 5455 5452 5448 5445 5442 5438 5435 5431 5426 5423 5418 5414 5411 5409 5404 5401 5396 5393 5390 5385 5381 5377 5371 5366 5360 5354 5348 5341
5492 5489 5487 5484 5481 5478 5476 5473 5471 5468 5464 5460 5457 5454 5451 5448 5444 5440 5436 5435 5432 5429 5425 5421 5417 5413 5409 5406 5402 5398 5394 5391 5387 5382 5375 5370 5365 5360 5354 5348 5342 5335 5329